Hourly Weather Roundup
Issued by NWS Central Illinois

Home | Current Version | Previous Version | Text Only | Print | Product List | Glossary On
Versions: 1 2 3 4 5 6 7 8 9 10 11 12 13 14 15 16 17 18 19 20 21 22 23 24 25 26 27 28 29 30 31 32 33 34 35 36 37 38 39 40 41 42 43 44 45 46 47 48 49 50
410
NZUS43 KILX 250310
HWRILX

Area Weather Roundup
National Weather Service Lincoln IL
1000 PM CDT SAT JUN 24 2017

NOTE:  "FAIR" indicates few or no clouds below 12,000 feet, with
       no sigificant weather and/or obstructions to visibility.


CITY           SKY/WX    TMP DP  RH WIND       PRES   REMARKS
Bloomington    CLEAR     60  46  59 SW6       30.12R
Champaign      CLEAR     58  48  69 SW6       30.13R
Danville       CLEAR     58  50  74 SW3       30.10R
Decatur        PTCLDY    62  46  55 SW3       30.13R
Effingham      CLEAR     61  55  81 CALM      30.17R
Flora          CLEAR     67  51  56 W6        30.17R
Galesburg      CLEAR     61  47  61 SW9       30.09R
Jacksonville   CLEAR     61  47  58 SW6       30.14R
Lacon          PTCLDY    61  48  63 S3        30.06S
Lawrenceville  PTCLDY    66  57  72 W5        30.15R
Litchfield     PTCLDY    58  52  81 SW5       30.16R
$$


CITY           SKY/WX    TMP DP  RH WIND       PRES   REMARKS
Lincoln        CLEAR     61  48  62 CALM      30.12R
Macomb         CLEAR     60  48  63 SW7       30.12R
Mattoon        CLEAR     62  49  62 W5        30.14R
Mt Carmel AP   PTCLDY    64  56  75 W5        30.15R
Olney-Noble AP CLEAR     64  58  81 CALM      30.16R
Paris AP       CLEAR     57  55  90 CALM      30.14R
Peoria         CLEAR     62  46  55 SW8       30.09R
Pontiac        CLEAR     61  54  78 S5        30.10R
Rantoul        CLEAR     59  51  75 SW5       30.11S
Robinson       CLEAR     59  55  89 W6        30.15R
Springfield    CLEAR     62  49  62 SW5       30.13R
Taylorville    PTCLDY    57  51  78 SW5       30.14R
$$

...REGIONAL REPORTS...


CITY           SKY/WX    TMP DP  RH WIND       PRES   REMARKS
Chicago O`Hare MOCLDY    65  45  48 NW8       30.05R
Kankakee       MOCLDY    63  46  55 CALM      30.09R
Moline         MOCLDY    63  54  72 W5        30.07R
Mount Sterling CLEAR     60  50  69 SW6       30.13R
Mount Vernon   MOCLDY    60  56  86 CALM      30.17R
Pittsfield     CLEAR     64  49  57 SW5       30.16R
Quincy         CLEAR     62  51  67 S6        30.13R
Rockford       PTCLDY    57  53  86 NW6       30.08R
$$


CITY           SKY/WX    TMP DP  RH WIND       PRES   REMARKS
Burlington     CLEAR     64  48  56 SW6       30.08R
Cedar Rapids   CLEAR     57  49  74 NW8       30.09R
Des Moines     CLEAR     69  42  37 N9G18     30.12R
Kirksville     CLEAR     65  47  52 SW5       30.14R
Ottumwa        CLEAR     62  47  57 W5        30.10R
St Louis       PTCLDY    70  46  42 SW3       30.18R
$$


CITY           SKY/WX    TMP DP  RH WIND       PRES   REMARKS
Terre Haute    CLEAR     63  52  67 W3        30.13R
Evansville     CLOUDY    67  52  58 W5        30.16R
Indianapolis   PTCLDY    64  50  60 W6        30.11R
Lafayette      CLEAR     59  51  75 CALM      30.10R
Madison        PTCLDY    55  51  86 VRB5      30.04R
Milwaukee      MOCLDY    59  50  72 SW10      30.00S
$$






USA.gov is the U.S. government's official web portal to all federal, state and local government web resources and services.